2019-036D (44342 NORAD) Tracking and Keplerian Element Data

This shows tracking and keplerian element data for the satellite.

Feedback or suggestion? Click here.




ElementValue
Catalog44342
Name2019-036D
Epoch Orbit369
Epoch Day201.73710732
Epoch Year2019
RAAN44.6405
Inclination24.0029
Eccentricity0.0014079
Argument of Perigee117.4266
Mean Anonmoly243.4569
Mean Motion14.53214704
Decay Rate0.00023048
L11 44342U 19036D 19201.73710732 .00023048 00000-0 53876-2 0 9997
L22 44342 24.0029 44.6405 0014079 117.4266 243.4569 14.53214704 3699

Live tracking and technical data element details for 2019-036D (NORAD 44342). 2019-036D can be tracked NOW for your location showing map with azimuth and elevation plus other details from your city location.

Track the satellite on the map from your city or location and see movement details for azimuth, elevation, latitude, longitude, range, height, and movement on the map or in text.







IsCatalogInMostPopularTable: catalog: 44342, numindb: 5
Update: records affected: 1



GetName: 44342 2019-036D

Hit Count: updated at: Sun, 21 Jul 2019 21:28:36 GMT